| time (UTC) | temp C | wind direction | speed KPH | gust KPH | rain 1hr cm | rain 24hr cm | rain mn cm | humidity % | barometer mb |
| 20260506024549 | 16 | 14 | 14.5 | 22.5 | 0.00 | 0.28 | 0.03 | 52 | 1013.8 |
| 20260506023055 | 17 | 15 | 16.1 | 25.7 | 0.00 | 0.28 | 0.03 | 48 | 1013.6 |
| 20260506021544 | 18 | 15 | 14.5 | 22.5 | 0.00 | 0.28 | 0.03 | 42 | 1013.4 |
| 20260506020042 | 18 | 11 | 12.9 | 19.3 | 0.00 | 0.28 | 0.03 | 42 | 1013.3 |
| 20260506014541 | 18 | 11 | 3.2 | 6.4 | 0.00 | 0.81 | 0.03 | 39 | 1013.2 |
| 20260506013042 | 18 | 11 | 1.6 | 11.3 | 0.00 | 0.81 | 0.03 | 40 | 1013.2 |
| 20260506011545 | 18 | 0 | 0.0 | 6.4 | 0.00 | 0.81 | 0.03 | 39 | 1013.3 |
| 20260506010055 | 18 | 0 | 1.6 | 11.3 | 0.00 | 0.81 | 0.03 | 38 | 1013.2 |
| 20260506004541 | 18 | 12 | 3.2 | 8.0 | 0.00 | 0.91 | 0.03 | 39 | 1013.2 |
| 20260506003041 | 18 | 11 | 1.6 | 16.1 | 0.00 | 0.91 | 0.03 | 39 | 1013.0 |
| 20260506001550 | 18 | 11 | 9.7 | 17.7 | 0.00 | 0.91 | 0.03 | 40 | 1012.9 |
| 20260506000043 | 18 | 11 | 6.4 | 16.1 | 0.00 | 0.91 | 0.03 | 41 | 1013.0 |
| 20260505234543 | 18 | 11 | 12.9 | 19.3 | 0.00 | 0.91 | 0.03 | 41 | 1013.1 |
| 20260505233047 | 18 | 11 | 4.8 | 16.1 | 0.00 | 0.91 | 0.03 | 42 | 1013.1 |
| 20260505231540 | 17 | 11 | 1.6 | 12.9 | 0.00 | 0.91 | 0.03 | 46 | 1013.2 |
| 20260505230041 | 17 | 12 | 8.0 | 14.5 | 0.00 | 0.91 | 0.03 | 47 | 1013.3 |
| 20260505224545 | 16 | 11 | 4.8 | 14.5 | 0.00 | 0.91 | 0.03 | 47 | 1013.3 |
| 20260505223045 | 17 | 11 | 11.3 | 17.7 | 0.00 | 0.91 | 0.03 | 46 | 1013.5 |
| 20260505221542 | 17 | 11 | 4.8 | 16.1 | 0.00 | 0.91 | 0.03 | 45 | 1013.6 |
| 20260505220048 | 18 | 11 | 8.0 | 22.5 | 0.00 | 0.91 | 0.03 | 46 | 1013.9 |
| 20260505214544 | 18 | 11 | 9.7 | 22.5 | 0.00 | 0.91 | 0.03 | 44 | 1013.8 |
| 20260505213043 | 17 | 11 | 1.6 | 17.7 | 0.00 | 0.91 | 0.03 | 47 | 1014.0 |
| 20260505211547 | 16 | 11 | 11.3 | 19.3 | 0.00 | 0.91 | 0.03 | 50 | 1014.0 |
| 20260505210047 | 16 | 11 | 6.4 | 16.1 | 0.00 | 0.91 | 0.03 | 51 | 1014.2 |
| 20260505204544 | 16 | 15 | 3.2 | 12.9 | 0.00 | 0.99 | 0.03 | 53 | 1014.3 |
| 20260505203044 | 16 | 11 | 16.1 | 20.9 | 0.00 | 0.99 | 0.03 | 53 | 1014.3 |
| 20260505201552 | 16 | 11 | 9.7 | 24.1 | 0.00 | 0.99 | 0.03 | 55 | 1014.5 |
| 20260505200042 | 15 | 10 | 6.4 | 19.3 | 0.00 | 0.99 | 0.03 | 60 | 1014.7 |
| 20260505194543 | 15 | 10 | 6.4 | 19.3 | 0.00 | 0.99 | 0.03 | 63 | 1014.9 |
| 20260505193041 | 13 | 0 | 1.6 | 12.9 | 0.00 | 0.99 | 0.03 | 62 | 1014.9 |
| 20260505191548 | 13 | 10 | 9.7 | 14.5 | 0.00 | 0.99 | 0.03 | 65 | 1014.7 |
| 20260505190050 | 12 | 11 | 4.8 | 16.1 | 0.00 | 0.99 | 0.03 | 67 | 1014.9 |
| 20260505184545 | 12 | 10 | 4.8 | 12.9 | 0.00 | 0.99 | 0.03 | 67 | 1014.9 |
| 20260505183107 | 12 | 10 | 0.0 | 14.5 | 0.00 | 0.99 | 0.03 | 71 | 1014.8 |
| 20260505181541 | 11 | 0 | 1.6 | 14.5 | 0.00 | 0.99 | 0.03 | 69 | 1014.8 |
| 20260505180045 | 11 | 9 | 4.8 | 16.1 | 0.00 | 0.99 | 0.03 | 70 | 1014.5 |
| 20260505174543 | 11 | 9 | 8.0 | 14.5 | 0.00 | 0.99 | 0.03 | 70 | 1014.5 |
| 20260505173051 | 10 | 9 | 6.4 | 14.5 | 0.00 | 0.99 | 0.03 | 76 | 1014.3 |
| 20260505171546 | 10 | 9 | 1.6 | 11.3 | 0.00 | 0.99 | 0.03 | 80 | 1014.3 |
| 20260505170040 | 9 | 9 | 4.8 | 11.3 | 0.00 | 0.99 | 0.03 | 81 | 1014.2 |
| 20260505164542 | 8 | 11 | 4.8 | 12.9 | 0.00 | 1.04 | 0.03 | 82 | 1014.1 |
| 20260505163045 | 7 | 9 | 11.3 | 16.1 | 0.00 | 1.04 | 0.03 | 83 | 1013.9 |
| 20260505161551 | 7 | 9 | 6.4 | 17.7 | 0.00 | 1.04 | 0.03 | 84 | 1013.6 |
| 20260505153038 | 6 | 9 | 11.3 | 16.1 | 0.00 | 1.04 | 0.03 | 85 | 1013.3 |
| 20260505151544 | 6 | 9 | 9.7 | 16.1 | 0.00 | 1.04 | 0.03 | 86 | 1013.2 |
| 20260505124556 | 5 | 13 | 12.9 | 20.9 | 0.00 | 1.04 | 0.03 | 86 | 1011.8 |
| 20260505123055 | 5 | 13 | 11.3 | 20.9 | 0.00 | 1.04 | 0.03 | 85 | 1011.6 |
| 20260505121542 | 5 | 13 | 17.7 | 24.1 | 0.00 | 1.04 | 0.03 | 85 | 1011.8 |
| 20260505120101 | 5 | 13 | 16.1 | 25.7 | 0.00 | 1.04 | 0.03 | 84 | 1011.8 |
| 20260505114545 | 5 | 13 | 16.1 | 25.7 | 0.00 | 1.04 | 0.03 | 84 | 1011.7 |
| 20260505113047 | 5 | 13 | 19.3 | 30.6 | 0.00 | 1.04 | 0.03 | 84 | 1011.6 |
| 20260505111544 | 5 | 13 | 20.9 | 27.4 | 0.00 | 1.04 | 0.03 | 84 | 1011.6 |
| 20260505101542 | 5 | 13 | 24.1 | 32.2 | 0.00 | 1.04 | 0.03 | 84 | 1011.9 |
| 20260505100045 | 5 | 13 | 20.9 | 29.0 | 0.00 | 1.04 | 0.03 | 84 | 1011.9 |
| 20260505094542 | 5 | 13 | 19.3 | 32.2 | 0.00 | 1.04 | 0.03 | 84 | 1011.9 |
| 20260505093043 | 5 | 13 | 27.4 | 38.6 | 0.00 | 1.04 | 0.03 | 84 | 1011.9 |
| 20260505091540 | 5 | 13 | 25.7 | 33.8 | 0.00 | 1.04 | 0.03 | 86 | 1011.9 |
| 20260505090044 | 5 | 13 | 27.4 | 38.6 | 0.00 | 1.04 | 0.03 | 85 | 1012.1 |
| 20260505084545 | 5 | 13 | 22.5 | 30.6 | 0.00 | 1.04 | 0.03 | 84 | 1012.2 |
| 20260505083048 | 6 | 13 | 22.5 | 32.2 | 0.03 | 1.04 | 0.03 | 84 | 1012.5 |
| 20260505081541 | 5 | 13 | 27.4 | 35.4 | 0.03 | 1.04 | 0.03 | 84 | 1012.7 |
| 20260505080042 | 5 | 13 | 22.5 | 32.2 | 0.03 | 1.04 | 0.03 | 86 | 1012.9 |
| 20260505074541 | 5 | 13 | 22.5 | 30.6 | 0.03 | 1.04 | 0.03 | 86 | 1012.5 |
| 20260505073054 | 5 | 13 | 12.9 | 19.3 | 0.00 | 1.02 | 0.00 | 90 | 1013.2 |
| 20260505071552 | 5 | 13 | 11.3 | 29.0 | 0.00 | 1.02 | 0.00 | 84 | 1013.1 |
| 20260505070046 | 5 | 13 | 19.3 | 27.4 | 0.00 | 1.02 | 0.00 | 84 | 1012.5 |
| 20260505064544 | 5 | 360 | 19.3 | 48.3 | 0.00 | 1.02 | 1.02 | 83 | 1012.6 |
| 20260505063041 | 5 | 13 | 25.7 | 38.6 | 0.00 | 1.02 | 1.02 | 82 | 1011.8 |
| 20260505061552 | 5 | 13 | 22.5 | 40.2 | 0.00 | 1.02 | 1.02 | 83 | 1011.9 |
| 20260505060045 | 5 | 13 | 29.0 | 40.2 | 0.00 | 1.02 | 1.02 | 84 | 1011.8 |
| 20260505054605 | 5 | 13 | 24.1 | 38.6 | 0.00 | 1.02 | 1.02 | 85 | 1012.0 |
| 20260505053057 | 5 | 13 | 27.4 | 38.6 | 0.00 | 1.02 | 1.02 | 86 | 1012.6 |
| 20260505051541 | 5 | 13 | 29.0 | 43.5 | 0.00 | 1.02 | 1.02 | 85 | 1012.8 |
| 20260505041541 | 5 | 13 | 27.4 | 38.6 | 0.15 | 1.02 | 1.02 | 89 | 1012.5 |
| 20260505040042 | 5 | 13 | 17.7 | 25.7 | 0.15 | 0.99 | 0.99 | 88 | 1012.9 |
| 20260505034539 | 5 | 13 | 19.3 | 32.2 | 0.15 | 0.97 | 0.97 | 88 | 1012.7 |
| 20260505033047 | 5 | 13 | 25.7 | 40.2 | 0.13 | 0.94 | 0.94 | 86 | 1012.4 |
| 20260505031557 | 5 | 13 | 30.6 | 45.1 | 0.05 | 0.86 | 0.86 | 85 | 1012.2 |
| 20260505030042 | 5 | 13 | 20.9 | 33.8 | 0.08 | 0.84 | 0.84 | 85 | 1012.4 |